[[{"header":{"parameterUnit":"m.s-1","parameterCategory":1,"la1":30.2991,"la2":30.254,"lo1":-89.0895,"lo2":-89.0444,"dy":0.0017,"dx":0.0017,"nx":28,"ny":28,"refTime":"2024-05-25T09:00:00:Z","depth":0,"parameterNumber":2,"parameterNumberName":"U-component_of_WINDS"},"data":[0,0,0,0,0,0,0,0,0,0,0,0,0,0,0,0,0,0,0,0,0,0,0,0,0,0,0,0,0,0,0,0,0,0,0,0,0,0,0,0,0,0,0,0,0,0,0,0,0,0,0,0,0,0,0,0,0,0,2.8381,2.8381,0,2.8435,2.8436,2.8436,2.8374,2.8371,2.8369,2.8367,2.8422,2.8426,2.843,0,0,0,0,0,0,0,0,0,0,0,0,0,2.8221,2.8224,2.8381,2.8381,2.8382,2.8435,2.8436,2.8437,2.8374,2.8371,2.8369,2.8366,2.8421,2.8426,2.843,0,0,0,0,0,0,0,0,0,0,0,0,0,2.8284,2.8225,2.8381,2.8357,2.8356,2.8435,2.8436,2.8437,2.8375,2.8371,2.8368,2.8365,2.842,2.8425,2.8431,2.8535,0,0,2.8447,2.845,0,0,0,0,0,0,0,0,2.8281,2.829,2.836,2.8359,2.8358,2.8394,2.84,2.847,2.8376,2.8368,2.8367,2.8363,2.8416,2.8421,2.8439,2.8538,2.854,2.8448,2.8451,2.8454,2.8455,0,0,0,0,0,0,0,2.8277,2.8288,2.8402,2.8361,2.836,2.8344,2.8349,2.8413,2.8411,2.8368,2.8364,2.8371,2.8414,2.8434,2.844,2.8541,2.8448,2.8453,2.8456,2.8458,2.8725,2.8728,0,0,0,0,0,0,2.8275,2.8284,2.84,2.8404,2.831,2.8349,2.8355,2.8386,2.841,2.841,2.8374,2.8368,2.8427,2.8434,2.8442,2.8563,2.8453,2.8459,2.8462,2.8721,2.8725,2.8729,0,0,0,0,0,0,2.8272,2.8286,2.8398,2.8343,2.8356,2.8356,2.8391,2.8389,2.8408,2.8414,2.8414,2.8395,2.8424,2.8434,2.8512,2.8565,2.8461,2.8466,2.8716,2.8722,2.8727,2.8809,0,0,0,0,0,0,2.8268,2.8285,2.8325,2.8344,2.8359,2.8468,2.8394,2.8392,2.8418,2.8411,2.8434,2.8434,2.8422,2.8504,2.8517,2.857,2.847,2.8712,2.8719,2.8726,2.8802,2.8817,2.883,0,0,0,0,0,2.8262,2.8347,2.8328,2.8342,2.841,2.8471,2.8479,2.8464,2.8423,2.8462,2.8466,2.8433,2.8557,2.8512,2.8527,2.8582,2.8708,2.8717,2.8725,2.8795,2.8814,2.883,0,0,0,0,0,0,2.8334,2.8349,2.8328,2.8421,2.8445,2.846,2.851,2.8485,2.8521,2.8513,2.8492,2.8498,2.858,2.8589,2.8539,2.8683,2.8626,2.8638,2.8674,2.8692,2.8706,2.8701,2.8475,0,0,0,0,0,2.8361,2.841,2.842,2.8502,2.8515,2.8511,2.8537,2.8523,2.8547,2.8557,2.8566,2.859,2.8634,2.8664,2.8705,2.8803,2.8806,2.8848,2.8863,2.8874,2.8884,2.8934,2.8952,2.8757,2.8757,2.8757,0,0,2.8417,2.8431,2.8463,2.8516,2.8533,2.8584,2.852,2.8576,2.8613,2.8565,2.8638,2.8646,2.8672,2.8759,2.8799,2.877,2.8939,2.8885,2.8894,2.8898,2.8945,2.8963,2.898,2.8763,2.8762,2.8761,0,0,2.8544,2.856,2.8629,2.8647,2.8673,2.867,2.8686,2.8705,2.8708,2.8781,2.8746,2.8789,2.8866,2.8885,2.8905,2.9038,2.9008,2.9052,2.9125,2.9174,2.9189,2.9203,2.9248,2.9265,2.9062,2.9062,2.9062,0,2.8609,2.8684,2.8667,2.8726,2.8749,2.8708,2.8776,2.8795,2.8834,2.885,2.8818,2.8912,2.8927,2.9017,2.9049,2.9068,2.9084,2.9048,2.9189,2.9202,2.9214,2.9257,2.9274,2.9067,2.9067,2.9066,2.9066,0,2.8763,2.8815,2.8867,2.8905,2.8934,2.8998,2.8989,2.9021,2.9005,2.9004,2.9078,2.9094,2.9137,2.9157,2.9142,2.9245,2.9226,2.9192,2.9133,2.9238,2.9278,2.9294,2.9074,2.9073,2.9071,2.907,0,0,2.8936,2.8962,2.8982,2.8997,2.9023,2.9062,2.9123,2.9165,2.9192,2.922,2.9269,2.9334,2.9302,2.9325,2.9311,2.9355,2.9456,2.9314,2.9314,2.9338,2.9567,2.9592,2.9611,2.9437,2.944,2.9443,2.9564,0,2.9061,2.9166,2.9152,2.9252,2.9299,2.9261,2.9314,2.9335,2.9336,2.9375,2.9377,2.9423,2.9378,2.9391,2.9432,2.9435,2.9501,2.9426,2.9481,2.9483,2.9473,2.9632,2.9658,2.9772,2.958,2.9583,2.9585,0,2.9221,2.9254,2.9359,2.9375,2.9395,2.9442,2.9478,2.9517,2.9539,2.9537,2.9562,2.954,2.96,2.9541,2.9622,2.9571,2.9593,2.9598,2.9602,2.9605,2.9539,2.9637,2.9809,2.9825,2.9609,2.9607,2.9606,0,2.9333,2.9404,2.9476,2.9491,2.9513,2.9546,2.9557,2.9576,2.9601,2.9633,2.9648,2.9687,2.9707,2.9737,2.9726,2.9685,2.9808,2.9749,2.9806,2.9807,2.9832,2.9831,3.0008,2.9851,2.985,2.985,2.985,0,2.9473,2.9539,2.9526,2.957,2.9641,2.9624,2.9695,2.9701,2.9718,2.9762,2.9732,2.9773,2.9757,2.9797,2.9789,2.9855,2.9866,2.9864,2.9861,2.9866,2.9866,2.9878,2.9869,2.9854,2.9853,2.9853,2.9852,0,2.961,2.9605,2.968,2.9694,2.9699,2.9751,2.9763,2.9803,2.9802,2.9857,2.9869,2.9867,2.9913,2.9905,2.9956,2.995,3.0033,3.0021,3.0025,3.0021,3.0078,3.0072,3.0268,3.0292,3.0121,3.0123,3.0124,0,2.9699,2.9748,2.9767,2.9794,2.9807,2.9851,2.9876,2.9861,2.9888,2.9917,2.9954,2.9996,3.0029,3.0104,3.0106,3.0145,3.0132,3.0198,3.0137,3.014,3.013,3.0126,3.013,3.0209,3.0211,3.0213,3.0214,0,2.9855,2.985,2.9888,2.9924,2.9955,2.9983,3.0009,3.0032,3.0019,3.0051,3.0097,3.0123,3.0174,3.0216,3.0251,3.0261,3.0235,3.0233,3.0248,3.0252,3.0252,3.025,3.0055,3.0228,3.0227,3.0226,3.0225,3.0225,2.9969,3.001,3.0029,3.0072,3.0089,3.0113,3.0151,3.0155,3.0193,3.0233,3.0222,3.0273,3.0293,3.0338,3.0352,3.0391,3.0367,3.0389,3.0394,3.0399,3.0404,3.0247,3.0398,3.0398,3.0397,3.0397,3.0396,0,3.0122,3.0132,3.0172,3.0207,3.024,3.0214,3.024,3.0269,3.0315,3.0336,3.0368,3.042,3.0461,3.0467,3.0505,3.0535,3.0524,3.0545,3.0542,3.0544,3.0426,3.0408,3.0554,3.0554,3.0554,3.0553,3.0553,3.0553,3.0205,3.0272,3.0269,3.0344,3.0354,3.0404,3.0421,3.0442,3.0458,3.0518,3.0551,3.0555,3.0569,3.0608,3.0643,3.0644,3.0658,3.0684,3.068,3.0568,3.0553,3.0538,3.0521,3.0688,3.0688,3.0794,3.0795,3.0796]},{"header":{"parameterUnit":"m.s-1","parameterCategory":1,"la1":30.2991,"la2":30.254,"lo1":-89.0895,"lo2":-89.0444,"dy":0.0017,"dx":0.0017,"nx":28,"ny":28,"refTime":"2024-05-25T09:00:00:Z","depth":0,"parameterNumber":3,"parameterNumberName":"V-component_of_WINDS"},"data":[0,0,0,0,0,0,0,0,0,0,0,0,0,0,0,0,0,0,0,0,0,0,0,0,0,0,0,0,0,0,0,0,0,0,0,0,0,0,0,0,0,0,0,0,0,0,0,0,0,0,0,0,0,0,0,0,0,0,4.2749,4.275,0,4.2868,4.2869,4.287,4.2843,4.284,4.2838,4.2836,4.2956,4.2961,4.2967,0,0,0,0,0,0,0,0,0,0,0,0,0,4.2496,4.2501,4.2749,4.2751,4.2752,4.2868,4.2869,4.2871,4.2843,4.284,4.2837,4.2835,4.2955,4.2961,4.2967,0,0,0,0,0,0,0,0,0,0,0,0,0,4.261,4.2503,4.2749,4.2752,4.2754,4.2867,4.2869,4.2871,4.2844,4.284,4.2837,4.2834,4.2952,4.296,4.2968,4.3085,0,0,4.2992,4.2996,0,0,0,0,0,0,0,0,4.2603,4.2619,4.275,4.2752,4.2754,4.2837,4.2824,4.2943,4.2844,4.2809,4.2836,4.2832,4.2919,4.293,4.2959,4.3091,4.3096,4.2993,4.2998,4.3001,4.3004,0,0,0,0,0,0,0,4.2595,4.2614,4.2796,4.2752,4.2754,4.2747,4.2759,4.2847,4.2882,4.2812,4.281,4.2825,4.292,4.2952,4.2962,4.3098,4.2993,4.3,4.3005,4.3008,4.333,4.3334,0,0,0,0,0,0,4.2586,4.2607,4.2792,4.2799,4.2669,4.2754,4.2768,4.2814,4.2881,4.2888,4.2828,4.2823,4.294,4.2953,4.2966,4.3107,4.3001,4.3009,4.3013,4.3326,4.3331,4.3335,0,0,0,0,0,0,4.2581,4.2603,4.2787,4.2703,4.2726,4.2762,4.2814,4.2818,4.285,4.2893,4.2899,4.2854,4.2938,4.2955,4.3056,4.3111,4.3012,4.302,4.3322,4.3328,4.3333,4.339,0,0,0,0,0,0,4.2574,4.2601,4.2647,4.2704,4.2731,4.2876,4.2817,4.2823,4.2864,4.2859,4.2919,4.2926,4.2936,4.3044,4.3064,4.312,4.3026,4.3317,4.3325,4.3331,4.3384,4.3397,4.3409,0,0,0,0,0,4.2565,4.2658,4.2649,4.2672,4.2788,4.2879,4.2894,4.2905,4.2869,4.2914,4.2941,4.2924,4.3102,4.3055,4.3076,4.3136,4.3314,4.3322,4.3331,4.3378,4.3395,4.3409,0,0,0,0,0,0,4.2607,4.2666,4.2657,4.2772,4.2821,4.2874,4.2932,4.2922,4.2982,4.2975,4.2985,4.2999,4.3101,4.3129,4.3075,4.3252,4.3202,4.3216,4.3231,4.3247,4.3259,4.3251,4.3033,0,0,0,0,0,4.2629,4.2698,4.2746,4.2843,4.2868,4.2896,4.2936,4.294,4.2991,4.3011,4.3046,4.3095,4.3162,4.3206,4.327,4.3387,4.3399,4.3439,4.3452,4.3462,4.3473,4.3536,4.3554,4.3363,4.3363,4.3363,0,0,4.2677,4.2718,4.2761,4.2853,4.2891,4.2962,4.2914,4.2991,4.3043,4.3023,4.312,4.3147,4.3203,4.3312,4.3362,4.3338,4.3528,4.3473,4.348,4.3486,4.3547,4.3565,4.3581,4.3369,4.3368,4.3367,0,0,4.2799,4.2838,4.2922,4.2961,4.302,4.3037,4.3057,4.3113,4.313,4.3227,4.3213,4.3275,4.339,4.343,4.3466,4.3602,4.3588,4.3622,4.3688,4.3749,4.3764,4.3778,4.3826,4.3843,4.3633,4.3634,4.3634,0,4.2851,4.2957,4.2967,4.3045,4.3085,4.307,4.3154,4.3192,4.3268,4.3296,4.3268,4.3412,4.3448,4.3566,4.3599,4.3629,4.3651,4.3616,4.3762,4.3775,4.3788,4.3833,4.3851,4.3637,4.3637,4.3636,4.3636,0,4.3017,4.3091,4.3152,4.3226,4.3273,4.3355,4.3375,4.3422,4.3421,4.3441,4.354,4.3583,4.3655,4.3683,4.3683,4.3801,4.3784,4.3759,4.3709,4.3809,4.3853,4.387,4.3643,4.3641,4.364,4.3639,0,0,4.3171,4.3248,4.327,4.3303,4.3365,4.3422,4.3502,4.3572,4.3612,4.3664,4.3731,4.3828,4.3805,4.3845,4.3849,4.3903,4.4007,4.3871,4.3872,4.3894,4.4138,4.4156,4.4176,4.3998,4.4001,4.4004,4.4133,0,4.3298,4.344,4.3449,4.3577,4.3644,4.363,4.3699,4.3745,4.3765,4.3825,4.3848,4.3916,4.3881,4.3905,4.3957,4.3983,4.4056,4.3974,4.4059,4.4062,4.4045,4.4199,4.4219,4.4339,4.415,4.4153,4.4155,0,4.3467,4.3524,4.3658,4.371,4.3739,4.3801,4.3865,4.3923,4.3974,4.3985,4.4029,4.4026,4.4106,4.4053,4.4164,4.4108,4.4143,4.4161,4.4166,4.4174,4.4115,4.4211,4.4378,4.4396,4.4181,4.4179,4.4177,0,4.3564,4.3675,4.3769,4.3798,4.3861,4.3905,4.3933,4.398,4.4021,4.4078,4.4104,4.4169,4.4204,4.4254,4.4268,4.4228,4.4378,4.4326,4.4389,4.4389,4.4422,4.4419,4.4596,4.4445,4.4444,4.4444,4.4444,0,4.3706,4.3788,4.3814,4.3872,4.3963,4.3973,4.4063,4.4088,4.413,4.4192,4.4183,4.4241,4.4256,4.4317,4.4328,4.4417,4.4433,4.4444,4.4446,4.4445,4.4444,4.4468,4.446,4.4449,4.4448,4.4447,4.4446,0,4.3831,4.3851,4.3953,4.4004,4.4018,4.4083,4.4126,4.4182,4.42,4.4279,4.4298,4.4328,4.4398,4.4417,4.4501,4.4509,4.4614,4.4608,4.4597,4.4597,4.4659,4.4653,4.4857,4.4884,4.4715,4.4717,4.4718,0,4.392,4.3983,4.404,4.4081,4.4111,4.4177,4.4219,4.423,4.4274,4.4336,4.4383,4.4453,4.4509,4.4623,4.4652,4.4716,4.4711,4.4779,4.4721,4.4718,4.4712,4.4708,4.4714,4.479,4.4791,4.4793,4.4794,0,4.4075,4.4082,4.4143,4.4207,4.4257,4.4308,4.4357,4.4391,4.4409,4.4458,4.4531,4.4574,4.466,4.4729,4.4794,4.4822,4.4811,4.4812,4.483,4.4829,4.482,4.4825,4.4627,4.4807,4.4806,4.4805,4.4804,4.4804,4.4185,4.4239,4.4288,4.4356,4.4393,4.4439,4.4493,4.4518,4.4579,4.465,4.4653,4.4731,4.4779,4.4864,4.4896,4.4957,4.4937,4.4963,4.4969,4.4976,4.4981,4.481,4.4969,4.4968,4.4968,4.4968,4.4968,0,4.4339,4.4369,4.4432,4.45,4.4553,4.4538,4.4591,4.4636,4.4705,4.475,4.4806,4.4888,4.4955,4.4988,4.5054,4.5096,4.5093,4.5113,4.511,4.5116,4.4995,4.4973,4.5115,4.5114,4.5114,4.5114,4.5114,4.5114,4.4426,4.4518,4.453,4.464,4.4669,4.4746,4.4777,4.4819,4.4855,4.4947,4.5003,4.5024,4.5064,4.5133,4.5193,4.5201,4.5225,4.5248,4.5254,4.514,4.5125,4.5111,4.509,4.5253,4.5254,4.537,4.5371,4.5371]}]]